Location: Bishopstone
(51.0167°N, 1.9000°W)
Time: 13:14:21
(UTC+00:00)

N. Korean satellite - Visible Passes

Search period start: 13 November 2019 00:00
Search period end: 23 November 2019 00:00
Orbit: 456 x 506 km, 97.2° (Epoch: 12 November)

Date Brightness Start Highest point End Pass type
(mag) Time Alt. Az. Time Alt. Az. Time Alt. Az.
13 Nov 8.7 05:33:34 10° NNE 05:36:57 32° E 05:40:18 10° SSE visible
13 Nov 8.9 17:47:14 10° SSW 17:50:24 29° W 17:53:39 10° NNW visible
14 Nov 9.7 05:08:47 10° NE 05:11:23 18° E 05:13:58 10° SE visible
14 Nov 7.0 06:41:25 10° N 06:45:01 45° WNW 06:48:33 10° SW visible
14 Nov 7.5 17:21:22 10° S 17:24:55 55° W 17:28:33 10° NNW visible
15 Nov 6.6 06:15:56 10° NNE 06:19:42 86° WNW 06:23:24 10° SSW visible
15 Nov 6.5 16:55:54 10° SSE 16:59:31 76° ENE 17:03:13 10° N visible
15 Nov 10.3 18:32:34 10° W 18:33:26 11° W 18:34:19 10° WNW visible
16 Nov 7.7 05:50:38 10° NNE 05:54:17 49° E 05:57:52 10° S visible
16 Nov 9.6 18:05:06 10° SW 18:07:47 19° W 18:10:31 10° NW visible
17 Nov 9.0 05:25:34 10° NE 05:28:46 26° E 05:31:55 10° SSE visible
17 Nov 8.5 17:38:51 10° SSW 17:42:13 35° W 17:45:39 10° NNW visible
18 Nov 9.9 05:00:58 10° NE 05:03:10 15° E 05:05:20 10° SE visible
18 Nov 6.7 06:33:14 10° N 06:36:54 55° WNW 06:40:30 10° SSW visible
18 Nov 7.0 17:13:07 10° S 17:16:44 68° WSW 17:20:27 10° NNW visible
19 Nov 6.8 06:07:47 10° NNE 06:11:32 78° ESE 06:15:13 10° S visible
19 Nov 6.6 16:47:46 10° SSE 16:51:22 62° ENE 16:55:03 10° N visible
19 Nov 10.1 18:23:23 10° WSW 18:25:10 13° W 18:26:59 10° WNW visible
20 Nov 8.1 05:42:33 10° NNE 05:46:05 40° E 05:49:34 10° SSE visible
20 Nov 9.3 17:56:33 10° SSW 17:59:32 23° W 18:02:35 10° NW visible
21 Nov 9.3 05:17:35 10° NE 05:20:31 22° E 05:23:26 10° SE visible
21 Nov 7.2 06:50:37 10° N 06:54:02 35° WNW 06:57:25 10° SW visible
21 Nov 8.0 17:30:29 10° S 17:34:00 43° W 17:37:34 10° NNW visible
22 Nov 10.1 04:53:19 10° ENE 04:54:53 12° E 04:56:26 10° ESE visible
22 Nov 6.6 06:25:02 10° N 06:28:44 67° WNW 06:32:21 10° SSW visible
22 Nov 6.7 17:04:52 10° SSE 17:08:32 84° WSW 17:12:17 10° NNW visible
